Location: Unspecified
(0.0000°N, 0.0000°E)
Time: 04:08:15
(UTC+00:00)

Tiangong - Visible Passes

Search period start: 19 February 2026 00:00
Search period end: 01 March 2026 00:00
Orbit: 385 x 391 km, 41.5° (Epoch: 18 February)

Date Brightness Start Highest point End Pass type
(mag) Time Alt. Az. Time Alt. Az. Time Alt. Az.
26 Feb -1.0 19:11:46 10° NNW 19:14:15 26° NE 19:14:15 26° NE visible
27 Feb -0.2 19:49:29 10° WNW 19:51:51 29° WSW 19:51:51 29° WSW visible
28 Feb -2.2 18:50:15 10° NW 18:53:24 86° NE 18:56:35 10° SE visible
